When you browse on this site, cookies collect data to enhance your experience and personalize the content and advertising you see.
Visit our Privacy Policy to learn more. By continuing to use the site, you agree to this use of cookies and data.
  • In Schweiz
  • Länderverzeichnis
  • Für 7 Tage
  • Wassertemperatur
  • Satellitenkarten
  • Wetterkarte
  • Widgets
  • user-avatar
    Anmelden

    Stündliche Wetter Gifhorn

    Heute, 26 Mai, Sonntag

    Zeit Temperatur Niederschläge Wind Luftdruck Luftfeuchtigkeit
    00:00 +10°C° 0 mm 1 m/S 757 mmHg 89%
    01:00 +9°C° 0 mm 1 m/S 757 mmHg 93%
    02:00 +9°C° 0 mm 1 m/S 757 mmHg 94%
    03:00 +8°C° 0 mm 2 m/S 756 mmHg 94%
    04:00 +8°C° 0 mm 2 m/S 756 mmHg 95%
    05:00 +9°C° 0 mm 3 m/S 756 mmHg 90%
    06:00 +11°C° 0 mm 4 m/S 755 mmHg 84%
    07:00 +12°C° 0 mm 5 m/S 755 mmHg 79%
    08:00 +14°C° 0 mm 5 m/S 755 mmHg 74%
    09:00 +16°C° 0 mm 6 m/S 754 mmHg 69%
    10:00 +17°C° 0 mm 6 m/S 754 mmHg 64%
    11:00 +19°C° 0 mm 6 m/S 754 mmHg 62%
    12:00 +19°C° 0 mm 6 m/S 753 mmHg 61%
    13:00 +20°C° 0 mm 6 m/S 753 mmHg 59%
    14:00 +21°C° 0 mm 6 m/S 753 mmHg 60%
    15:00 +21°C° 0 mm 6 m/S 752 mmHg 62%
    16:00 +21°C° 0 mm 6 m/S 752 mmHg 63%
    17:00 +21°C° 0.1 mm 5 m/S 751 mmHg 68%
    18:00 +20°C° 0.1 mm 5 m/S 751 mmHg 74%
    19:00 +19°C° 0.1 mm 4 m/S 751 mmHg 79%
    20:00 +18°C° 0 mm 4 m/S 751 mmHg 81%
    21:00 +17°C° 0 mm 4 m/S 751 mmHg 84%
    22:00 +15°C° 0 mm 4 m/S 751 mmHg 86%
    23:00 +15°C° 0 mm 4 m/S 750 mmHg 87%

    Morgen, 27 Mai, Montag

    Zeit Temperatur Niederschläge Wind Luftdruck Luftfeuchtigkeit
    00:00 +15°C° 0 mm 5 m/S 750 mmHg 88%
    01:00 +14°C° 0 mm 5 m/S 750 mmHg 90%
    02:00 +14°C° 0.4 mm 5 m/S 750 mmHg 91%
    03:00 +14°C° 0.4 mm 5 m/S 749 mmHg 92%
    04:00 +14°C° 0.4 mm 5 m/S 749 mmHg 93%
    05:00 +14°C° 0.4 mm 5 m/S 749 mmHg 94%
    06:00 +13°C° 0.4 mm 4 m/S 750 mmHg 94%
    07:00 +13°C° 0.4 mm 4 m/S 750 mmHg 95%
    08:00 +14°C° 0 mm 4 m/S 750 mmHg 84%
    09:00 +16°C° 0 mm 5 m/S 751 mmHg 74%
    10:00 +17°C° 0 mm 5 m/S 751 mmHg 63%
    11:00 +17°C° 0 mm 5 m/S 751 mmHg 62%
    12:00 +17°C° 0 mm 5 m/S 751 mmHg 60%
    13:00 +19°C° 0 mm 4 m/S 751 mmHg 59%
    14:00 +19°C° 0.1 mm 4 m/S 751 mmHg 59%
    15:00 +19°C° 0.1 mm 4 m/S 751 mmHg 58%
    16:00 +19°C° 0.1 mm 4 m/S 751 mmHg 58%
    17:00 +18°C° 0 mm 4 m/S 751 mmHg 62%
    18:00 +17°C° 0 mm 3 m/S 751 mmHg 67%
    19:00 +16°C° 0 mm 3 m/S 751 mmHg 71%
    20:00 +15°C° 0 mm 2 m/S 751 mmHg 74%
    21:00 +14°C° 0 mm 2 m/S 751 mmHg 77%
    22:00 +12°C° 0 mm 2 m/S 751 mmHg 80%
    23:00 +12°C° 0 mm 1 m/S 751 mmHg 82%

    übermorgen, 28 Mai, Dienstag

    Zeit Temperatur Niederschläge Wind Luftdruck Luftfeuchtigkeit
    00:00 +11°C° 0 mm 1 m/S 751 mmHg 84%
    01:00 +11°C° 0 mm 1 m/S 751 mmHg 86%
    02:00 +10°C° 0 mm 1 m/S 751 mmHg 88%
    03:00 +9°C° 0 mm 1 m/S 751 mmHg 91%
    04:00 +8°C° 0 mm 1 m/S 751 mmHg 94%
    05:00 +10°C° 0 mm 1 m/S 751 mmHg 88%
    06:00 +11°C° 0 mm 1 m/S 751 mmHg 83%
    07:00 +13°C° 0 mm 1 m/S 751 mmHg 77%
    08:00 +14°C° 0 mm 1 m/S 751 mmHg 70%
    09:00 +16°C° 0 mm 1 m/S 750 mmHg 63%
    10:00 +18°C° 0 mm 1 m/S 750 mmHg 56%
    11:00 +20°C° 0 mm 1 m/S 750 mmHg 53%
    12:00 +19°C° 0 mm 0 m/S 750 mmHg 50%
    13:00 +20°C° 0 mm 0 m/S 750 mmHg 48%
    14:00 +19°C° 0 mm 0 m/S 750 mmHg 48%
    15:00 +21°C° 0 mm 1 m/S 749 mmHg 48%
    16:00 +21°C° 0 mm 1 m/S 749 mmHg 48%
    17:00 +20°C° 0.4 mm 1 m/S 750 mmHg 59%
    18:00 +18°C° 0.4 mm 1 m/S 750 mmHg 70%
    19:00 +16°C° 0.4 mm 2 m/S 750 mmHg 82%
    20:00 +15°C° 0.7 mm 1 m/S 751 mmHg 84%
    21:00 +14°C° 0.7 mm 1 m/S 751 mmHg 87%
    22:00 +13°C° 0.7 mm 1 m/S 751 mmHg 89%
    23:00 +12°C° 0.4 mm 1 m/S 752 mmHg 91%

    29 Mai, Mittwoch

    Zeit Temperatur Niederschläge Wind Luftdruck Luftfeuchtigkeit
    00:00 +12°C° 0.4 mm 2 m/S 752 mmHg 93%
    01:00 +10°C° 0.4 mm 2 m/S 752 mmHg 95%
    02:00 +10°C° 0.4 mm 2 m/S 753 mmHg 95%
    03:00 +9°C° 0.4 mm 3 m/S 753 mmHg 96%
    04:00 +9°C° 0.4 mm 3 m/S 753 mmHg 97%
    05:00 +8°C° 0.6 mm 4 m/S 754 mmHg 96%
    06:00 +7°C° 0.6 mm 4 m/S 755 mmHg 96%
    07:00 +7°C° 0.6 mm 4 m/S 755 mmHg 95%
    08:00 +7°C° 0.1 mm 4 m/S 756 mmHg 94%
    09:00 +8°C° 0.1 mm 4 m/S 756 mmHg 92%
    10:00 +9°C° 0.1 mm 3 m/S 757 mmHg 91%
    11:00 +10°C° 0 mm 3 m/S 757 mmHg 83%
    12:00 +13°C° 0 mm 2 m/S 757 mmHg 75%
    13:00 +14°C° 0 mm 2 m/S 758 mmHg 68%
    14:00 +14°C° 0.1 mm 2 m/S 758 mmHg 67%
    15:00 +15°C° 0.1 mm 2 m/S 758 mmHg 65%
    16:00 +15°C° 0.1 mm 2 m/S 758 mmHg 64%
    17:00 +14°C° 0 mm 2 m/S 758 mmHg 66%
    18:00 +14°C° 0 mm 2 m/S 759 mmHg 69%
    19:00 +14°C° 0 mm 2 m/S 759 mmHg 71%
    20:00 +12°C° 0 mm 2 m/S 759 mmHg 74%
    21:00 +11°C° 0 mm 1 m/S 760 mmHg 78%
    22:00 +9°C° 0 mm 1 m/S 760 mmHg 81%
    23:00 +8°C° 0 mm 1 m/S 760 mmHg 83%

    30 Mai, Donnerstag

    Zeit Temperatur Niederschläge Wind Luftdruck Luftfeuchtigkeit
    00:00 +8°C° 0 mm 1 m/S 760 mmHg 85%
    01:00 +7°C° 0 mm 1 m/S 760 mmHg 88%
    02:00 +7°C° 0 mm 1 m/S 760 mmHg 88%
    03:00 +6°C° 0 mm 1 m/S 760 mmHg 89%
    04:00 +6°C° 0 mm 1 m/S 760 mmHg 90%
    05:00 +8°C° 0 mm 1 m/S 761 mmHg 85%
    06:00 +8°C° 0 mm 2 m/S 761 mmHg 80%
    07:00 +10°C° 0 mm 2 m/S 761 mmHg 75%
    08:00 +13°C° 0 mm 2 m/S 761 mmHg 68%
    09:00 +14°C° 0 mm 2 m/S 761 mmHg 61%
    10:00 +16°C° 0 mm 2 m/S 761 mmHg 54%
    11:00 +16°C° 0 mm 3 m/S 761 mmHg 54%
    12:00 +17°C° 0 mm 3 m/S 761 mmHg 53%
    13:00 +17°C° 0 mm 3 m/S 760 mmHg 53%
    14:00 +17°C° 0.2 mm 3 m/S 760 mmHg 58%
    15:00 +17°C° 0.2 mm 4 m/S 760 mmHg 64%
    16:00 +15°C° 0.2 mm 4 m/S 760 mmHg 70%
    17:00 +15°C° 0.3 mm 4 m/S 760 mmHg 75%
    18:00 +14°C° 0.3 mm 3 m/S 760 mmHg 80%
    19:00 +13°C° 0.3 mm 3 m/S 760 mmHg 86%
    20:00 +13°C° 0 mm 2 m/S 761 mmHg 88%
    21:00 +10°C° 0 mm 2 m/S 761 mmHg 91%
    22:00 +9°C° 0 mm 2 m/S 762 mmHg 94%
    23:00 +9°C° 0 mm 1 m/S 762 mmHg 94%

    31 Mai, Freitag

    Zeit Temperatur Niederschläge Wind Luftdruck Luftfeuchtigkeit
    00:00 +8°C° 0 mm 1 m/S 763 mmHg 93%
    01:00 +7°C° 0 mm 1 m/S 763 mmHg 93%
    02:00 +7°C° 0 mm 1 m/S 763 mmHg 93%
    03:00 +6°C° 0 mm 1 m/S 763 mmHg 93%
    04:00 +5°C° 0 mm 0 m/S 763 mmHg 93%
    05:00 +8°C° 0 mm 1 m/S 764 mmHg 90%
    06:00 +9°C° 0 mm 1 m/S 764 mmHg 87%
    07:00 +11°C° 0 mm 1 m/S 764 mmHg 83%
    08:00 +13°C° 0 mm 1 m/S 764 mmHg 76%
    09:00 +14°C° 0 mm 2 m/S 764 mmHg 68%
    10:00 +16°C° 0 mm 2 m/S 764 mmHg 61%
    11:00 +16°C° 0.1 mm 2 m/S 764 mmHg 64%
    12:00 +17°C° 0.1 mm 2 m/S 763 mmHg 67%
    13:00 +17°C° 0.1 mm 3 m/S 763 mmHg 71%
    14:00 +17°C° 0.1 mm 3 m/S 763 mmHg 71%
    15:00 +18°C° 0.1 mm 3 m/S 762 mmHg 71%
    16:00 +18°C° 0.1 mm 3 m/S 762 mmHg 72%
    17:00 +18°C° 0.2 mm 3 m/S 762 mmHg 78%
    18:00 +17°C° 0.2 mm 3 m/S 762 mmHg 84%
    19:00 +16°C° 0.2 mm 3 m/S 762 mmHg 91%
    20:00 +16°C° 0.4 mm 3 m/S 762 mmHg 92%
    21:00 +16°C° 0.4 mm 3 m/S 762 mmHg 94%
    22:00 +14°C° 0.4 mm 3 m/S 762 mmHg 96%
    23:00 +14°C° 0.1 mm 4 m/S 762 mmHg 96%
    Mehr zeigen